WetterOnline ( https://www.wetteronline.de )

Wetter aktuell Bad Schmiedeberg

Aktuelles Wetter: Wittenberg (106m)

6-stündlich | Neueste Meldungen
Ortszeit Temperatur Wetter
Do, 18.07. 20:00 25.4° C wolkig
Do, 18.07. 14:00 24.9° C leicht bewölkt
Do, 18.07. 8:00 17.8° C leicht bewölkt
Do, 18.07. 2:00 15.2° C wolkenlos
Mi, 17.07. 20:00 22.6° C fast wolkenlos
Mi, 17.07. 14:00 22.8° C bewölkt
Mi, 17.07. 8:00 17.8° C bedeckt
Mi, 17.07. 2:00 16.4° C wolkenlos
Ortszeit Temperatur Wetter
Fr, 19.07. 0:30 19.6° C wolkig
Fr, 19.07. 0:20 19.6° C wolkig
Fr, 19.07. 0:10 19.6° C bewölkt
Fr, 19.07. 0:00 19.9° C bedeckt
Do, 18.07. 23:50 19.9° C bedeckt
Do, 18.07. 23:40 20.1° C bedeckt
Do, 18.07. 23:30 20.1° C bedeckt
Do, 18.07. 23:00 20.4° C bedeckt
Do, 18.07. 22:30 20.4° C bewölkt
Do, 18.07. 22:00 20.5° C wolkig
Do, 18.07. 21:30 22.1° C bedeckt
Ortszeit Relative Feuchte Sichtweite
Do, 18.07. 20:00 44% >70 km
Do, 18.07. 14:00 47% >70 km
Do, 18.07. 8:00 80% 65 km
Do, 18.07. 2:00 86% 50 km
Mi, 17.07. 20:00 53% 60 km
Mi, 17.07. 14:00 53% >70 km
Mi, 17.07. 8:00 76% >70 km
Mi, 17.07. 2:00 79% 60 km
Ortszeit Relative Feuchte Sichtweite
Fr, 19.07. 0:30 64% >70 km
Fr, 19.07. 0:20 64% -
Fr, 19.07. 0:10 65% -
Fr, 19.07. 0:00 64% 60 km
Do, 18.07. 23:50 64% -
Do, 18.07. 23:40 64% -
Do, 18.07. 23:30 64% >70 km
Do, 18.07. 23:00 64% 55 km
Do, 18.07. 22:30 66% >70 km
Do, 18.07. 22:00 67% 55 km
Do, 18.07. 21:30 65% 60 km
Ortszeit Niederschlagsmenge Niederschlagsart
Do, 18.07. 20:00 0.0 l/m2 in 12 Std. -
Do, 18.07. 14:00 0.0 l/m2 in 6 Std. -
Do, 18.07. 8:00 0.0 l/m2 in 12 Std. -
Do, 18.07. 2:00 0.0 l/m2 in 6 Std. -
Mi, 17.07. 20:00 0.1 l/m2 in 12 Std. -
Mi, 17.07. 14:00 0.1 l/m2 in 6 Std. Niederschlag
Mi, 17.07. 8:00 0.1 l/m2 in 12 Std. -
Mi, 17.07. 2:00 0.1 l/m2 in 6 Std. Regen
Ortszeit Niederschlagsmenge Niederschlagsart
Fr, 19.07. 0:30 0.0 l/m2 in 30 Min -
Fr, 19.07. 0:20 keine Meldung -
Fr, 19.07. 0:10 keine Meldung -
Fr, 19.07. 0:00 0.0 l/m2 in 1 Std. -
Do, 18.07. 23:50 keine Meldung -
Do, 18.07. 23:40 keine Meldung -
Do, 18.07. 23:30 0.0 l/m2 in 30 Min -
Do, 18.07. 23:00 0.0 l/m2 in 1 Std. -
Do, 18.07. 22:30 0.0 l/m2 in 30 Min -
Do, 18.07. 22:00 0.0 l/m2 in 1 Std. -
Do, 18.07. 21:30 0.0 l/m2 in 30 Min -
Ortszeit Stärke Spitze Richtung
km/h Bft. km/h Grad Sektor
Do, 18.07. 20:00 4 1 18 140° SO
Do, 18.07. 14:00 7 2 17 300° NW
Do, 18.07. 8:00 4 1 11 190° S
Do, 18.07. 2:00 7 2 24 330° NW
Mi, 17.07. 20:00 7 2 36 310° NW
Mi, 17.07. 14:00 14 3 32 260° W
Mi, 17.07. 8:00 7 2 18 220° SW
Mi, 17.07. 2:00 9 2 41 240° SW
Ortszeit Stärke Spitze Richtung
km/h Bft. km/h Grad Sektor
Fr, 19.07. 0:30 4 1 11 80° O
Fr, 19.07. 0:20 4 1 - 80° O
Fr, 19.07. 0:10 7 2 - 60° NO
Fr, 19.07. 0:00 7 2 11 40° NO
Do, 18.07. 23:50 7 2 - 40° NO
Do, 18.07. 23:40 7 2 - 40° NO
Do, 18.07. 23:30 7 2 13 50° NO
Do, 18.07. 23:00 7 2 11 40° NO
Do, 18.07. 22:30 7 2 11 40° NO
Do, 18.07. 22:00 7 2 7 60° NO
Do, 18.07. 21:30 7 2 7 70° O
Ortszeit Untergrenze Bedeckung Gattung
total tief tief mittel hoch
Do, 18.07. 20:00 1800 m 8/8 1/8 - - -
Do, 18.07. 14:00 1380 m 3/8 1/8 - - -
Do, 18.07. 8:00 9000 m 5/8 0/8 - - -
Do, 18.07. 2:00 - 0/8 0/8 - - -
Mi, 17.07. 20:00 1470 m 1/8 1/8 - - -
Mi, 17.07. 14:00 1140 m 7/8 7/8 - - -
Mi, 17.07. 8:00 6300 m 8/8 8/8 - - -
Mi, 17.07. 2:00 - 0/8 0/8 - - -
Ortszeit Bedeckungsgrad in Achtel und Wolkenuntergrenze
Fr, 19.07. 0:30 5(6300m) 7(10500m) 7(10500m)
Fr, 19.07. 0:20 5(6300m) 7(10500m) 7(10500m)
Fr, 19.07. 0:10 7
Fr, 19.07. 0:00 8(6900m) 8(10500m)
Do, 18.07. 23:50 8(6900m) 8(10500m)
Do, 18.07. 23:40 8
Do, 18.07. 23:30 8(6300m) 8(6900m) 8(7500m)
Do, 18.07. 23:00 8(6900m) 8(7500m) 8(9000m)
Do, 18.07. 22:30 5(6600m) 8(7200m) 8(9000m)
Do, 18.07. 22:00 8(7200m) 8(9000m) 8(10500m)
Do, 18.07. 21:30 8(6900m) 8(8700m) 8(9000m)
Ortszeit Luftdruck NN (hPa) Tendenz (hPa in 3 Std.)
Do, 18.07. 20:00 1022 - 0,2
Do, 18.07. 14:00 1024 - 0,5
Do, 18.07. 8:00 1024 + 0,7
Do, 18.07. 2:00 1023 + 0,6
Mi, 17.07. 20:00 1021 + 0,5
Mi, 17.07. 14:00 1020 + 1,1
Mi, 17.07. 8:00 1018 + 1,2
Mi, 17.07. 2:00 1016 + 1,3
Ortszeit Luftdruck NN (hPa) Tendenz (hPa in 3 Std.)
Fr, 19.07. 0:30 1023 + 0,4
Fr, 19.07. 0:20 1023 keine Meldung
Fr, 19.07. 0:10 1023 keine Meldung
Fr, 19.07. 0:00 1023 + 0,4
Do, 18.07. 23:50 1023 keine Meldung
Do, 18.07. 23:40 1023 keine Meldung
Do, 18.07. 23:30 1023 + 0,4
Do, 18.07. 23:00 1023 + 0,3
Do, 18.07. 22:30 1023 + 0,4
Do, 18.07. 22:00 1023 + 0,4
Do, 18.07. 21:30 1022 + 0,2
Ortszeit Schneehöhe (cm)
Do, 18.07. 20:00 0
Do, 18.07. 14:00 0
Do, 18.07. 8:00 0
Do, 18.07. 2:00 0
Mi, 17.07. 20:00 0
Mi, 17.07. 14:00 0
Mi, 17.07. 8:00 0
Mi, 17.07. 2:00 0
Ortszeit Schneehöhe (cm)
Fr, 19.07. 0:30 0
Fr, 19.07. 0:20 0
Fr, 19.07. 0:10 -
Fr, 19.07. 0:00 0
Do, 18.07. 23:50 0
Do, 18.07. 23:40 -
Do, 18.07. 23:30 0
Do, 18.07. 23:00 0
Do, 18.07. 22:30 0
Do, 18.07. 22:00 0
Do, 18.07. 21:30 0
Link zu dieser Seite / Seite empfehlen

Das Wetter in ...